SL-16 DEB, 22407

Orbit data source: Space-Track

SL-16 DEB, 22407 is space debris in LEO originally from a launch on Fri, 25 Dec 1992 UTC launched from the Tyuratam Missile And Space Complex (TTMTR). Debris objects in space refer to the collection of defunct objects orbiting the Earth. Examples of debris include non-operational satellites, rocket bodies, and fragments generated from explosions, collisions, or faulty payload assembly.

Loading next visibility...
Identifier
22407, 1992-093CY
Orbit
LEO
Country
Flag of CISCIS
Related business
Manufacturer
Unknown
Mission
Spacecraft
Bus & Motor
Unknown
Mass
Unknown
Launch date (UTC)
1992-12-25 (33 years ago)
Launch vehicle
Unknown
Launch site
Tyuratam Missile And Space Complex (TTMTR)
Object type
Payload
Rocket body
Debris
Shape & HBR
Unknown shape, 0.1 m
Radar Cross Section
Small (<0.1 m²)

Expand to show TLE details & history
Last TLE update: 1 day ago

TLE from 1 day ago
0 SL-16 DEB
1 22407U 92093CY  26132.10608667  .00000228  00000-0  21605-3 0  9995
2 22407  70.8615  13.3641 0177581  95.0502 267.0899 13.84167156679041
Epoch: 2026-05-12T02:32Z
TLE epoch observation values (Epoch: 2026-05-12T02:32:45.888Z)
Latitude
-0.00004°
Longitude
105.28766°
Altitude
960.409 km
Speed
7.367 km/s
True Right ascension
00h 53m 27s
True Declination
0° 00' 00"
Sunlit
Object was in daylight at epoch
Visualization orbit readout
Latitude
Unknown
Longitude
Unknown
Altitude
Unknown
Speed
Unknown
Apparent Right ascension
Unknown
Apparent Declination
Unknown
Sunlit
N/A
Visualization observer readout
Local Sidereal Time
15:50:07
Azimuth
Unknown
Elevation
Unknown
Doppler factor
Unknown
Orbital elements
Apogee altitude
1,077.194 km
Perigee altitude
817.029 km
Semi-major axis
7,325.248 km
Eccentricity
0.01776
Inclination
70.8615°
RAAN
13.3641°
Arg. of periapsis
95.0502°
True anomaly
265.06031°
Mean anomaly
267.0899°
Eccentric anomaly
266.07482°
Mean motion
3.46186 °/min
Orbital period
103.99 mins
BSTAR
0.00021605
Loading maneuver chart data...
Computing Atmospheric mass density...

Documentation

Showing up to 5 results
|